Back to Top

Language: 

My Weather Underground Personal Weather Station Historical Data with Graphs...

Delerius Weather Station Historical Data
Daily Summary for March 17, 2017 Units:  English    Metric   Both
« Previous Day
Next Day »
Daily Weekly Monthly Yearly Custom
  High: Low: Average:
Temperature: 52.3 °F 38.7 °F 45.2 °F
Dew Point: 49.0 °F 34.4 °F 40.9 °F
Humidity: 91 % 80 % 85 %
Wind Speed: 21.0 mph 3.0 mph 12.6 mph
Wind Gust: 36.0 mph - -
Wind:- - WSW
Pressure: 30.06 in 29.56 in -
Precipitation: 0.01 in    
Historical Graphs
 
 
Tabular Data for March 17, 2017
Time Temperature Dew Point Pressure Wind Wind Speed Wind Gust Humidity Rainfall Rate (Hourly) solar Conditions
00:00 40.6 °F 35.6 °F 30.06 in West 8.0 mph 13.0 mph 82 % 0.00 in 0 W/m2
00:05 40.5 °F 35.4 °F 30.05 in West 8.0 mph 13.0 mph 82 % 0.00 in 0 W/m2
00:10 40.5 °F 35.4 °F 30.05 in West 7.0 mph 12.0 mph 82 % 0.00 in 0 W/m2
00:15 40.3 °F 35.2 °F 30.05 in West 6.0 mph 11.0 mph 82 % 0.00 in 0 W/m2
00:20 39.9 °F 34.9 °F 30.05 in West 6.0 mph 9.0 mph 82 % 0.00 in 0 W/m2
00:25 39.7 °F 35.0 °F 30.05 in West 5.0 mph 8.0 mph 83 % 0.00 in 0 W/m2
00:30 39.6 °F 34.8 °F 30.05 in WNW 5.0 mph 8.0 mph 83 % 0.00 in 0 W/m2
00:35 39.4 °F 34.6 °F 30.06 in West 5.0 mph 8.0 mph 83 % 0.00 in 0 W/m2
00:40 39.2 °F 34.8 °F 30.06 in West 4.0 mph 7.0 mph 84 % 0.00 in 0 W/m2
00:45 39.0 °F 34.6 °F 30.05 in West 3.0 mph 8.0 mph 84 % 0.00 in 0 W/m2
00:50 39.0 °F 34.6 °F 30.05 in West 5.0 mph 9.0 mph 84 % 0.00 in 0 W/m2
00:55 38.8 °F 34.4 °F 30.05 in West 6.0 mph 9.0 mph 84 % 0.00 in 0 W/m2
01:00 38.8 °F 34.4 °F 30.05 in WNW 5.0 mph 9.0 mph 84 % 0.00 in 0 W/m2
01:05 38.8 °F 34.4 °F 30.05 in WNW 6.0 mph 8.0 mph 84 % 0.00 in 0 W/m2
01:10 38.8 °F 34.4 °F 30.05 in WNW 6.0 mph 10.0 mph 84 % 0.00 in 0 W/m2
01:15 38.7 °F 34.5 °F 30.05 in WNW 6.0 mph 10.0 mph 85 % 0.00 in 0 W/m2
01:20 38.7 °F 34.5 °F 30.05 in WNW 6.0 mph 10.0 mph 85 % 0.00 in 0 W/m2
01:25 38.7 °F 34.5 °F 30.05 in WNW 6.0 mph 10.0 mph 85 % 0.00 in 0 W/m2
01:30 38.7 °F 34.5 °F 30.05 in WNW 5.0 mph 9.0 mph 85 % 0.00 in 0 W/m2
01:35 38.7 °F 34.5 °F 30.05 in WNW 5.0 mph 8.0 mph 85 % 0.00 in 0 W/m2
01:40 38.7 °F 34.5 °F 30.05 in West 5.0 mph 8.0 mph 85 % 0.00 in 0 W/m2
01:41 38.7 °F 34.5 °F 30.05 in West 5.0 mph 8.0 mph 85 % 0.00 in 0 W/m2
01:46 38.7 °F 34.5 °F 30.05 in West 5.0 mph 10.0 mph 85 % 0.00 in 0 W/m2
01:51 38.7 °F 34.5 °F 30.04 in West 5.0 mph 11.0 mph 85 % 0.00 in 0 W/m2
01:56 38.8 °F 34.7 °F 30.04 in West 6.0 mph 11.0 mph 85 % 0.00 in 0 W/m2
02:01 39.0 °F 34.9 °F 30.04 in West 7.0 mph 13.0 mph 85 % 0.00 in 0 W/m2
02:06 39.4 °F 34.9 °F 30.04 in West 8.0 mph 14.0 mph 84 % 0.00 in 0 W/m2
02:11 39.6 °F 35.1 °F 30.04 in West 8.0 mph 14.0 mph 84 % 0.00 in 0 W/m2
02:16 39.7 °F 35.0 °F 30.04 in West 7.0 mph 13.0 mph 83 % 0.00 in 0 W/m2
02:21 39.7 °F 35.0 °F 30.03 in West 6.0 mph 11.0 mph 83 % 0.00 in 0 W/m2
02:26 39.6 °F 34.8 °F 30.03 in West 5.0 mph 10.0 mph 83 % 0.00 in 0 W/m2
02:31 39.6 °F 34.8 °F 30.03 in West 5.0 mph 10.0 mph 83 % 0.00 in 0 W/m2
02:36 39.6 °F 35.1 °F 30.03 in West 6.0 mph 12.0 mph 84 % 0.00 in 0 W/m2
02:41 39.6 °F 35.1 °F 30.02 in West 6.0 mph 12.0 mph 84 % 0.00 in 0 W/m2
02:46 39.6 °F 35.1 °F 30.02 in West 7.0 mph 11.0 mph 84 % 0.00 in 0 W/m2
02:51 39.6 °F 35.1 °F 30.02 in West 8.0 mph 12.0 mph 84 % 0.00 in 0 W/m2
02:56 39.7 °F 35.0 °F 30.02 in West 8.0 mph 13.0 mph 83 % 0.00 in 0 W/m2
03:01 39.7 °F 35.0 °F 30.02 in West 8.0 mph 13.0 mph 83 % 0.00 in 0 W/m2
03:06 39.7 °F 35.0 °F 30.02 in West 7.0 mph 12.0 mph 83 % 0.00 in 0 W/m2
03:11 39.7 °F 35.0 °F 30.02 in West 9.0 mph 16.0 mph 83 % 0.00 in 0 W/m2
03:16 39.9 °F 35.2 °F 30.02 in West 9.0 mph 16.0 mph 83 % 0.00 in 0 W/m2
03:21 39.9 °F 35.2 °F 30.02 in WSW 9.0 mph 13.0 mph 83 % 0.00 in 0 W/m2
03:26 40.3 °F 35.5 °F 30.02 in WSW 9.0 mph 18.0 mph 83 % 0.00 in 0 W/m2
03:31 40.5 °F 35.7 °F 30.01 in WSW 10.0 mph 18.0 mph 83 % 0.00 in 0 W/m2
03:36 40.6 °F 35.6 °F 30.01 in WSW 11.0 mph 19.0 mph 82 % 0.00 in 0 W/m2
03:41 40.6 °F 35.6 °F 30.01 in WSW 11.0 mph 19.0 mph 82 % 0.00 in 0 W/m2
03:46 40.6 °F 35.6 °F 30.00 in WSW 12.0 mph 21.0 mph 82 % 0.00 in 0 W/m2
03:51 40.8 °F 35.7 °F 30.00 in WSW 12.0 mph 21.0 mph 82 % 0.00 in 0 W/m2
03:57 40.8 °F 35.7 °F 30.01 in WSW 12.0 mph 23.0 mph 82 % 0.00 in 0 W/m2
04:02 41.0 °F 35.9 °F 30.01 in WSW 12.0 mph 23.0 mph 82 % 0.00 in 0 W/m2
04:07 41.2 °F 35.8 °F 30.01 in WSW 13.0 mph 22.0 mph 81 % 0.00 in 0 W/m2
04:12 41.2 °F 35.8 °F 30.01 in WSW 13.0 mph 22.0 mph 81 % 0.00 in 0 W/m2
04:17 41.2 °F 35.8 °F 30.01 in WSW 12.0 mph 21.0 mph 81 % 0.00 in 0 W/m2
04:22 41.2 °F 35.8 °F 30.01 in WSW 12.0 mph 21.0 mph 81 % 0.00 in 0 W/m2
04:27 41.0 °F 35.6 °F 30.00 in WSW 11.0 mph 21.0 mph 81 % 0.00 in 0 W/m2
04:32 40.8 °F 35.7 °F 30.00 in West 10.0 mph 18.0 mph 82 % 0.00 in 0 W/m2
04:37 40.8 °F 35.7 °F 30.00 in WSW 11.0 mph 18.0 mph 82 % 0.00 in 0 W/m2
04:42 40.6 °F 35.6 °F 30.00 in West 11.0 mph 20.0 mph 82 % 0.00 in 0 W/m2
04:47 40.6 °F 35.6 °F 30.00 in West 12.0 mph 21.0 mph 82 % 0.00 in 0 W/m2
04:52 40.6 °F 35.6 °F 30.00 in West 13.0 mph 21.0 mph 82 % 0.00 in 0 W/m2
04:57 40.6 °F 35.6 °F 30.00 in West 13.0 mph 20.0 mph 82 % 0.00 in 0 W/m2
05:02 40.6 °F 35.3 °F 29.99 in West 12.0 mph 20.0 mph 81 % 0.00 in 0 W/m2
05:07 40.6 °F 35.3 °F 29.99 in West 11.0 mph 20.0 mph 81 % 0.00 in 0 W/m2
05:12 40.6 °F 35.3 °F 29.99 in West 11.0 mph 20.0 mph 81 % 0.00 in 0 W/m2
05:17 40.6 °F 35.3 °F 29.99 in West 11.0 mph 20.0 mph 81 % 0.00 in 0 W/m2
05:22 40.6 °F 35.3 °F 29.99 in West 12.0 mph 20.0 mph 81 % 0.00 in 0 W/m2
05:27 40.8 °F 35.4 °F 29.99 in West 13.0 mph 21.0 mph 81 % 0.00 in 0 W/m2
05:32 40.8 °F 35.4 °F 29.99 in West 12.0 mph 21.0 mph 81 % 0.00 in 0 W/m2
05:37 40.8 °F 35.4 °F 29.98 in West 12.0 mph 21.0 mph 81 % 0.00 in 0 W/m2
05:42 41.0 °F 35.6 °F 29.99 in West 12.0 mph 21.0 mph 81 % 0.00 in 0 W/m2
05:47 41.0 °F 35.6 °F 29.98 in WSW 13.0 mph 22.0 mph 81 % 0.00 in 0 W/m2
05:52 41.0 °F 35.6 °F 29.98 in WSW 13.0 mph 22.0 mph 81 % 0.00 in 0 W/m2
05:58 41.0 °F 35.6 °F 29.98 in WSW 12.0 mph 21.0 mph 81 % 0.00 in 0 W/m2
06:03 41.0 °F 35.6 °F 29.98 in WSW 12.0 mph 22.0 mph 81 % 0.00 in 0 W/m2
06:08 40.8 °F 35.7 °F 29.98 in WSW 11.0 mph 22.0 mph 82 % 0.00 in 0 W/m2
06:13 40.8 °F 35.7 °F 29.98 in WSW 10.0 mph 18.0 mph 82 % 0.00 in 0 W/m2
06:18 40.6 °F 35.9 °F 29.98 in WSW 10.0 mph 19.0 mph 83 % 0.00 in 0 W/m2
06:23 40.6 °F 35.9 °F 29.98 in West 10.0 mph 19.0 mph 83 % 0.00 in 0 W/m2
06:28 40.6 °F 35.9 °F 29.98 in WSW 10.0 mph 22.0 mph 83 % 0.00 in 5 W/m2
06:33 40.6 °F 36.2 °F 29.98 in WSW 11.0 mph 22.0 mph 84 % 0.00 in 7 W/m2
06:38 40.6 °F 36.2 °F 29.98 in West 11.0 mph 19.0 mph 84 % 0.00 in 11 W/m2
06:43 40.8 °F 36.4 °F 29.98 in West 11.0 mph 18.0 mph 84 % 0.00 in 14 W/m2
06:48 40.8 °F 36.4 °F 29.98 in West 9.0 mph 18.0 mph 84 % 0.00 in 16 W/m2
06:53 40.8 °F 36.4 °F 29.98 in WSW 10.0 mph 18.0 mph 84 % 0.00 in 18 W/m2
06:58 40.8 °F 36.1 °F 29.98 in WSW 10.0 mph 20.0 mph 83 % 0.00 in 23 W/m2
07:03 40.8 °F 36.1 °F 29.98 in WSW 10.0 mph 20.0 mph 83 % 0.00 in 28 W/m2
07:08 40.8 °F 36.1 °F 29.98 in WSW 10.0 mph 21.0 mph 83 % 0.00 in 35 W/m2
07:13 40.6 °F 36.2 °F 29.98 in West 11.0 mph 21.0 mph 84 % 0.00 in 40 W/m2
07:18 40.6 °F 36.2 °F 29.98 in West 11.0 mph 19.0 mph 84 % 0.00 in 49 W/m2
07:23 40.6 °F 36.2 °F 29.98 in WSW 10.0 mph 19.0 mph 84 % 0.00 in 54 W/m2
07:28 40.6 °F 36.2 °F 29.98 in West 10.0 mph 19.0 mph 84 % 0.00 in 63 W/m2
07:33 40.6 °F 36.2 °F 29.98 in WSW 9.0 mph 15.0 mph 84 % 0.00 in 69 W/m2
07:38 40.8 °F 36.4 °F 29.98 in WSW 10.0 mph 19.0 mph 84 % 0.00 in 74 W/m2
07:43 40.8 °F 36.4 °F 29.98 in West 11.0 mph 19.0 mph 84 % 0.00 in 86 W/m2
07:48 41.0 °F 36.8 °F 29.97 in West 11.0 mph 18.0 mph 85 % 0.00 in 100 W/m2
07:53 41.2 °F 37.0 °F 29.97 in West 12.0 mph 19.0 mph 85 % 0.00 in 120 W/m2
07:58 41.4 °F 37.2 °F 29.97 in WSW 12.0 mph 21.0 mph 85 % 0.00 in 125 W/m2
08:03 41.5 °F 37.4 °F 29.97 in WSW 11.0 mph 21.0 mph 85 % 0.00 in 134 W/m2
08:08 41.7 °F 37.5 °F 29.98 in West 12.0 mph 22.0 mph 85 % 0.00 in 132 W/m2
08:13 42.1 °F 37.9 °F 29.97 in West 13.0 mph 22.0 mph 85 % 0.00 in 120 W/m2
08:18 42.1 °F 37.9 °F 29.97 in West 14.0 mph 22.0 mph 85 % 0.00 in 118 W/m2
08:23 42.3 °F 38.1 °F 29.97 in West 14.0 mph 23.0 mph 85 % 0.00 in 141 W/m2
08:28 42.3 °F 38.1 °F 29.97 in WSW 13.0 mph 23.0 mph 85 % 0.00 in 153 W/m2
08:33 42.3 °F 38.1 °F 29.97 in WSW 12.0 mph 24.0 mph 85 % 0.00 in 139 W/m2
08:38 42.4 °F 38.5 °F 29.97 in WSW 13.0 mph 24.0 mph 86 % 0.00 in 165 W/m2
08:43 42.6 °F 38.4 °F 29.97 in WSW 13.0 mph 21.0 mph 85 % 0.00 in 128 W/m2
08:49 42.6 °F 38.4 °F 29.97 in WSW 14.0 mph 25.0 mph 85 % 0.00 in 165 W/m2
08:54 43.0 °F 38.8 °F 29.97 in WSW 14.0 mph 25.0 mph 85 % 0.00 in 306 W/m2
08:59 43.3 °F 39.1 °F 29.96 in WSW 14.0 mph 23.0 mph 85 % 0.00 in 271 W/m2
09:04 43.9 °F 39.4 °F 29.96 in WSW 14.0 mph 24.0 mph 84 % 0.00 in 364 W/m2
09:09 44.1 °F 39.5 °F 29.96 in WSW 14.0 mph 24.0 mph 84 % 0.00 in 427 W/m2
09:14 44.1 °F 39.5 °F 29.96 in WSW 15.0 mph 28.0 mph 84 % 0.00 in 272 W/m2
09:19 44.4 °F 39.9 °F 29.96 in WSW 14.0 mph 28.0 mph 84 % 0.00 in 283 W/m2
09:24 44.8 °F 39.9 °F 29.96 in WSW 14.0 mph 23.0 mph 83 % 0.00 in 316 W/m2
09:29 45.0 °F 40.1 °F 29.96 in WSW 14.0 mph 22.0 mph 83 % 0.00 in 292 W/m2
09:34 45.3 °F 40.5 °F 29.96 in WSW 13.0 mph 24.0 mph 83 % 0.00 in 520 W/m2
09:39 45.7 °F 40.5 °F 29.95 in WSW 15.0 mph 25.0 mph 82 % 0.00 in 454 W/m2
09:44 45.9 °F 40.7 °F 29.96 in WSW 16.0 mph 25.0 mph 82 % 0.00 in 380 W/m2
09:49 45.9 °F 40.4 °F 29.96 in WSW 16.0 mph 28.0 mph 81 % 0.00 in 353 W/m2
09:54 45.9 °F 40.4 °F 29.96 in WSW 17.0 mph 28.0 mph 81 % 0.00 in 236 W/m2
09:59 45.9 °F 40.4 °F 29.96 in WSW 17.0 mph 27.0 mph 81 % 0.00 in 202 W/m2
10:04 45.9 °F 40.7 °F 29.96 in WSW 16.0 mph 28.0 mph 82 % 0.00 in 144 W/m2
10:09 45.7 °F 40.5 °F 29.96 in WSW 14.0 mph 28.0 mph 82 % 0.00 in 325 W/m2
10:14 45.9 °F 40.7 °F 29.96 in WSW 14.0 mph 24.0 mph 82 % 0.00 in 360 W/m2
10:19 46.0 °F 41.5 °F 29.95 in WSW 13.0 mph 24.0 mph 84 % 0.00 in 468 W/m2
10:24 46.4 °F 41.8 °F 29.95 in West 12.0 mph 23.0 mph 84 % 0.00 in 367 W/m2
10:29 46.4 °F 41.8 °F 29.95 in WSW 13.0 mph 23.0 mph 84 % 0.00 in 394 W/m2
10:34 46.4 °F 41.8 °F 29.95 in WSW 14.0 mph 22.0 mph 84 % 0.00 in 336 W/m2
10:39 46.6 °F 42.0 °F 29.94 in West 15.0 mph 22.0 mph 84 % 0.00 in 482 W/m2
10:44 46.8 °F 41.9 °F 29.94 in WSW 16.0 mph 26.0 mph 83 % 0.00 in 538 W/m2
10:49 46.8 °F 41.9 °F 29.94 in WSW 17.0 mph 27.0 mph 83 % 0.00 in 371 W/m2
10:54 47.1 °F 42.2 °F 29.94 in WSW 16.0 mph 27.0 mph 83 % 0.00 in 826 W/m2
10:59 47.5 °F 41.6 °F 29.94 in WSW 16.0 mph 28.0 mph 80 % 0.00 in 253 W/m2
11:04 47.5 °F 42.3 °F 29.94 in WSW 15.0 mph 28.0 mph 82 % 0.00 in 366 W/m2
11:09 47.5 °F 41.9 °F 29.94 in WSW 15.0 mph 26.0 mph 81 % 0.00 in 243 W/m2
11:14 47.3 °F 41.8 °F 29.93 in WSW 17.0 mph 28.0 mph 81 % 0.00 in 276 W/m2
11:19 47.5 °F 41.9 °F 29.94 in WSW 17.0 mph 28.0 mph 81 % 0.00 in 371 W/m2
11:24 47.5 °F 41.9 °F 29.94 in WSW 16.0 mph 26.0 mph 81 % 0.00 in 225 W/m2
11:25 47.5 °F 41.9 °F 29.94 in WSW 16.0 mph 26.0 mph 81 % 0.00 in 248 W/m2
11:30 47.5 °F 41.9 °F 29.93 in West 16.0 mph 26.0 mph 81 % 0.00 in 301 W/m2
11:35 47.7 °F 42.1 °F 29.93 in WSW 15.0 mph 25.0 mph 81 % 0.00 in 315 W/m2
11:40 47.7 °F 42.1 °F 29.94 in WSW 15.0 mph 27.0 mph 81 % 0.00 in 246 W/m2
11:45 47.5 °F 41.9 °F 29.93 in WSW 16.0 mph 27.0 mph 81 % 0.00 in 295 W/m2
11:50 47.5 °F 41.9 °F 29.93 in WSW 15.0 mph 25.0 mph 81 % 0.00 in 309 W/m2
11:55 47.5 °F 41.9 °F 29.93 in WSW 15.0 mph 25.0 mph 81 % 0.00 in 248 W/m2
12:00 47.5 °F 41.9 °F 29.93 in WSW 14.0 mph 24.0 mph 81 % 0.00 in 151 W/m2
12:05 47.3 °F 42.1 °F 29.93 in WSW 14.0 mph 23.0 mph 82 % 0.00 in 86 W/m2
12:10 46.9 °F 41.7 °F 29.92 in WSW 14.0 mph 23.0 mph 82 % 0.00 in 74 W/m2
12:15 46.9 °F 42.0 °F 29.92 in WSW 12.0 mph 24.0 mph 83 % 0.00 in 62 W/m2
12:20 46.8 °F 41.9 °F 29.92 in WSW 12.0 mph 24.0 mph 83 % 0.00 in 47 W/m2
12:25 46.8 °F 41.9 °F 29.92 in West 13.0 mph 23.0 mph 83 % 0.00 in 67 W/m2
12:30 46.8 °F 41.9 °F 29.92 in West 14.0 mph 24.0 mph 83 % 0.00 in 54 W/m2
12:35 46.8 °F 42.2 °F 29.92 in WSW 13.0 mph 24.0 mph 84 % 0.00 in 86 W/m2
12:40 46.6 °F 42.3 °F 29.91 in WSW 12.0 mph 20.0 mph 85 % 0.00 in 90 W/m2
12:45 46.6 °F 42.6 °F 29.91 in WSW 12.0 mph 21.0 mph 86 % 0.00 in 139 W/m2
12:50 46.6 °F 42.9 °F 29.91 in WSW 12.0 mph 21.0 mph 87 % 0.01 in 206 W/m2
12:55 46.6 °F 42.9 °F 29.90 in WSW 13.0 mph 20.0 mph 87 % 0.01 in 178 W/m2
13:00 46.6 °F 43.2 °F 29.90 in WSW 12.0 mph 20.0 mph 88 % 0.01 in 141 W/m2
13:05 46.8 °F 43.1 °F 29.90 in WSW 11.0 mph 18.0 mph 87 % 0.01 in 109 W/m2
13:10 46.8 °F 42.8 °F 29.89 in WSW 12.0 mph 23.0 mph 86 % 0.01 in 98 W/m2
13:15 46.8 °F 42.8 °F 29.89 in WSW 14.0 mph 23.0 mph 86 % 0.01 in 83 W/m2
13:20 46.9 °F 42.7 °F 29.88 in WSW 14.0 mph 23.0 mph 85 % 0.01 in 98 W/m2
13:25 46.9 °F 42.7 °F 29.88 in WSW 14.0 mph 24.0 mph 85 % 0.01 in 81 W/m2
13:27 46.9 °F 42.7 °F 29.88 in WSW 14.0 mph 24.0 mph 85 % 0.01 in 90 W/m2
13:31 46.9 °F 42.7 °F 29.88 in WSW 14.0 mph 24.0 mph 85 % 0.01 in 86 W/m2
13:32 46.9 °F 42.7 °F 29.88 in WSW 15.0 mph 24.0 mph 85 % 0.01 in 88 W/m2
13:37 46.9 °F 43.0 °F 29.88 in WSW 14.0 mph 24.0 mph 86 % 0.01 in 142 W/m2
13:42 46.9 °F 42.7 °F 29.87 in WSW 14.0 mph 24.0 mph 85 % 0.01 in 139 W/m2
13:47 46.9 °F 43.0 °F 29.86 in WSW 14.0 mph 24.0 mph 86 % 0.00 in 148 W/m2
13:52 47.1 °F 43.1 °F 29.86 in SW 12.0 mph 21.0 mph 86 % 0.00 in 137 W/m2
13:57 47.5 °F 43.2 °F 29.86 in WSW 12.0 mph 22.0 mph 85 % 0.00 in 146 W/m2
14:02 47.5 °F 43.2 °F 29.85 in WSW 12.0 mph 22.0 mph 85 % 0.00 in 93 W/m2
14:08 47.7 °F 43.1 °F 29.86 in WSW 11.0 mph 19.0 mph 84 % 0.00 in 83 W/m2
14:13 47.7 °F 43.1 °F 29.86 in WSW 11.0 mph 19.0 mph 84 % 0.00 in 81 W/m2
14:18 47.8 °F 42.9 °F 29.85 in WSW 12.0 mph 20.0 mph 83 % 0.00 in 76 W/m2
14:23 47.8 °F 42.9 °F 29.85 in WSW 12.0 mph 21.0 mph 83 % 0.00 in 90 W/m2
14:28 47.8 °F 42.6 °F 29.84 in WSW 14.0 mph 25.0 mph 82 % 0.00 in 93 W/m2
14:33 48.0 °F 42.8 °F 29.83 in WSW 14.0 mph 25.0 mph 82 % 0.00 in 84 W/m2
14:38 48.0 °F 42.8 °F 29.83 in WSW 13.0 mph 21.0 mph 82 % 0.00 in 84 W/m2
14:43 48.0 °F 42.8 °F 29.83 in WSW 12.0 mph 23.0 mph 82 % 0.00 in 70 W/m2
14:48 48.0 °F 43.1 °F 29.83 in WSW 12.0 mph 23.0 mph 83 % 0.00 in 53 W/m2
14:53 48.0 °F 43.1 °F 29.82 in WSW 13.0 mph 20.0 mph 83 % 0.00 in 49 W/m2
14:58 47.8 °F 43.2 °F 29.82 in WSW 11.0 mph 21.0 mph 84 % 0.00 in 51 W/m2
15:03 47.8 °F 43.2 °F 29.81 in WSW 11.0 mph 21.0 mph 84 % 0.00 in 77 W/m2
15:08 47.8 °F 43.2 °F 29.81 in WSW 12.0 mph 25.0 mph 84 % 0.00 in 84 W/m2
15:13 48.0 °F 43.1 °F 29.80 in WSW 12.0 mph 25.0 mph 83 % 0.00 in 72 W/m2
15:18 48.0 °F 42.8 °F 29.80 in WSW 15.0 mph 32.0 mph 82 % 0.00 in 74 W/m2
15:23 48.2 °F 43.3 °F 29.80 in WSW 16.0 mph 32.0 mph 83 % 0.00 in 65 W/m2
15:28 48.0 °F 42.8 °F 29.79 in WSW 14.0 mph 27.0 mph 82 % 0.00 in 84 W/m2
15:33 48.0 °F 42.8 °F 29.79 in WSW 15.0 mph 27.0 mph 82 % 0.00 in 76 W/m2
15:38 48.0 °F 42.8 °F 29.79 in WSW 14.0 mph 25.0 mph 82 % 0.00 in 54 W/m2
15:43 47.8 °F 42.9 °F 29.79 in WSW 13.0 mph 25.0 mph 83 % 0.00 in 58 W/m2
15:48 47.7 °F 43.1 °F 29.78 in WSW 13.0 mph 26.0 mph 84 % 0.00 in 56 W/m2
15:53 47.5 °F 42.6 °F 29.78 in WSW 14.0 mph 26.0 mph 83 % 0.00 in 51 W/m2
15:58 47.5 °F 42.9 °F 29.77 in WSW 13.0 mph 21.0 mph 84 % 0.00 in 56 W/m2
16:03 47.5 °F 42.9 °F 29.77 in WSW 11.0 mph 24.0 mph 84 % 0.00 in 62 W/m2
16:08 47.5 °F 42.9 °F 29.76 in WSW 12.0 mph 25.0 mph 84 % 0.00 in 58 W/m2
16:13 47.5 °F 43.2 °F 29.77 in WSW 13.0 mph 25.0 mph 85 % 0.00 in 58 W/m2
16:18 47.3 °F 43.3 °F 29.76 in WSW 13.0 mph 24.0 mph 86 % 0.00 in 56 W/m2
16:23 47.3 °F 43.0 °F 29.76 in WSW 15.0 mph 30.0 mph 85 % 0.00 in 46 W/m2
16:28 47.5 °F 43.2 °F 29.75 in WSW 16.0 mph 30.0 mph 85 % 0.00 in 49 W/m2
16:33 47.5 °F 43.2 °F 29.74 in WSW 17.0 mph 30.0 mph 85 % 0.00 in 63 W/m2
16:38 47.5 °F 43.2 °F 29.74 in WSW 17.0 mph 30.0 mph 85 % 0.00 in 62 W/m2
16:43 47.5 °F 43.2 °F 29.73 in WSW 15.0 mph 26.0 mph 85 % 0.00 in 56 W/m2
16:48 47.5 °F 43.2 °F 29.73 in WSW 16.0 mph 31.0 mph 85 % 0.00 in 69 W/m2
16:53 47.7 °F 43.4 °F 29.72 in WSW 16.0 mph 31.0 mph 85 % 0.00 in 63 W/m2
16:58 47.7 °F 43.4 °F 29.71 in WSW 16.0 mph 29.0 mph 85 % 0.00 in 49 W/m2
17:03 47.7 °F 43.4 °F 29.72 in WSW 17.0 mph 29.0 mph 85 % 0.00 in 32 W/m2
17:08 47.7 °F 43.4 °F 29.71 in WSW 15.0 mph 29.0 mph 85 % 0.00 in 32 W/m2
17:13 47.7 °F 43.4 °F 29.71 in WSW 14.0 mph 25.0 mph 85 % 0.00 in 25 W/m2
17:18 47.5 °F 43.2 °F 29.71 in WSW 15.0 mph 27.0 mph 85 % 0.00 in 28 W/m2
17:23 47.5 °F 43.5 °F 29.70 in SW 15.0 mph 27.0 mph 86 % 0.00 in 25 W/m2
17:28 47.3 °F 43.3 °F 29.70 in SW 14.0 mph 31.0 mph 86 % 0.00 in 21 W/m2
17:33 47.3 °F 43.3 °F 29.69 in WSW 15.0 mph 31.0 mph 86 % 0.00 in 18 W/m2
17:38 47.1 °F 43.4 °F 29.69 in WSW 13.0 mph 26.0 mph 87 % 0.00 in 12 W/m2
17:43 47.1 °F 43.4 °F 29.69 in SW 13.0 mph 27.0 mph 87 % 0.00 in 9 W/m2
17:48 47.1 °F 43.4 °F 29.68 in SW 14.0 mph 27.0 mph 87 % 0.00 in 5 W/m2
17:53 47.3 °F 43.6 °F 29.67 in WSW 13.0 mph 22.0 mph 87 % 0.00 in 5 W/m2
17:58 47.3 °F 43.6 °F 29.67 in SW 12.0 mph 22.0 mph 87 % 0.00 in 0 W/m2
18:03 47.3 °F 43.9 °F 29.67 in WSW 14.0 mph 25.0 mph 88 % 0.00 in 0 W/m2
18:08 47.3 °F 43.9 °F 29.67 in WSW 14.0 mph 25.0 mph 88 % 0.00 in 0 W/m2
18:13 47.5 °F 44.1 °F 29.65 in SW 14.0 mph 25.0 mph 88 % 0.00 in 0 W/m2
18:18 47.5 °F 43.8 °F 29.65 in SW 16.0 mph 30.0 mph 87 % 0.00 in 0 W/m2
18:28 47.7 °F 44.0 °F 29.65 in SW 14.0 mph 26.0 mph 87 % 0.00 in 0 W/m2
18:33 47.7 °F 44.0 °F 29.64 in WSW 14.0 mph 29.0 mph 87 % 0.00 in 0 W/m2
18:38 47.7 °F 44.0 °F 29.64 in WSW 15.0 mph 29.0 mph 87 % 0.00 in 0 W/m2
18:43 47.7 °F 44.0 °F 29.64 in SW 16.0 mph 28.0 mph 87 % 0.00 in 0 W/m2
18:48 47.7 °F 44.3 °F 29.64 in WSW 17.0 mph 28.0 mph 88 % 0.00 in 0 W/m2
18:53 47.8 °F 44.5 °F 29.64 in WSW 16.0 mph 26.0 mph 88 % 0.00 in 0 W/m2
18:58 47.8 °F 44.5 °F 29.63 in SW 14.0 mph 26.0 mph 88 % 0.00 in 0 W/m2
19:03 47.8 °F 44.5 °F 29.63 in WSW 12.0 mph 25.0 mph 88 % 0.00 in 0 W/m2
19:08 47.8 °F 44.5 °F 29.63 in SW 13.0 mph 26.0 mph 88 % 0.00 in 0 W/m2
19:13 48.0 °F 44.6 °F 29.62 in SW 13.0 mph 26.0 mph 88 % 0.00 in 0 W/m2
19:18 48.0 °F 44.6 °F 29.62 in SW 13.0 mph 22.0 mph 88 % 0.00 in 0 W/m2
19:23 48.2 °F 44.8 °F 29.62 in WSW 14.0 mph 24.0 mph 88 % 0.00 in 0 W/m2
19:28 48.2 °F 44.8 °F 29.62 in WSW 13.0 mph 25.0 mph 88 % 0.00 in 0 W/m2
19:34 48.4 °F 45.0 °F 29.60 in WSW 13.0 mph 25.0 mph 88 % 0.00 in 0 W/m2
19:39 48.4 °F 45.0 °F 29.60 in SW 13.0 mph 24.0 mph 88 % 0.00 in 0 W/m2
19:44 48.6 °F 45.2 °F 29.60 in WSW 13.0 mph 23.0 mph 88 % 0.00 in 0 W/m2
19:49 48.6 °F 45.2 °F 29.60 in WSW 12.0 mph 22.0 mph 88 % 0.00 in 0 W/m2
19:54 48.7 °F 45.3 °F 29.59 in WSW 12.0 mph 25.0 mph 88 % 0.00 in 0 W/m2
19:59 48.7 °F 45.3 °F 29.59 in WSW 12.0 mph 25.0 mph 88 % 0.00 in 0 W/m2
20:04 48.9 °F 45.5 °F 29.59 in WSW 11.0 mph 22.0 mph 88 % 0.00 in 0 W/m2
20:09 48.9 °F 45.5 °F 29.59 in WSW 12.0 mph 26.0 mph 88 % 0.00 in 0 W/m2
20:14 49.1 °F 45.7 °F 29.58 in WSW 13.0 mph 26.0 mph 88 % 0.00 in 0 W/m2
20:19 49.1 °F 45.7 °F 29.58 in WSW 13.0 mph 25.0 mph 88 % 0.00 in 0 W/m2
20:24 49.1 °F 45.7 °F 29.58 in WSW 13.0 mph 23.0 mph 88 % 0.00 in 0 W/m2
20:29 49.3 °F 45.9 °F 29.59 in WSW 16.0 mph 34.0 mph 88 % 0.00 in 0 W/m2
20:34 49.6 °F 46.2 °F 29.58 in WSW 19.0 mph 34.0 mph 88 % 0.00 in 0 W/m2
20:39 49.6 °F 46.2 °F 29.58 in West 18.0 mph 30.0 mph 88 % 0.00 in 0 W/m2
20:44 49.6 °F 46.2 °F 29.58 in WSW 18.0 mph 28.0 mph 88 % 0.00 in 0 W/m2
20:49 49.5 °F 46.1 °F 29.58 in WSW 17.0 mph 28.0 mph 88 % 0.00 in 0 W/m2
20:54 49.5 °F 46.1 °F 29.58 in West 15.0 mph 27.0 mph 88 % 0.00 in 0 W/m2
20:59 49.3 °F 45.9 °F 29.58 in West 12.0 mph 26.0 mph 88 % 0.00 in 0 W/m2
21:04 49.3 °F 46.2 °F 29.58 in West 12.0 mph 27.0 mph 89 % 0.00 in 0 W/m2
21:09 49.3 °F 46.2 °F 29.58 in West 14.0 mph 28.0 mph 89 % 0.00 in 0 W/m2
21:14 49.5 °F 46.4 °F 29.58 in West 15.0 mph 30.0 mph 89 % 0.00 in 0 W/m2
21:19 49.5 °F 46.4 °F 29.58 in West 17.0 mph 32.0 mph 89 % 0.00 in 0 W/m2
21:24 49.6 °F 46.5 °F 29.58 in West 16.0 mph 32.0 mph 89 % 0.00 in 0 W/m2
21:29 49.6 °F 46.8 °F 29.58 in West 16.0 mph 29.0 mph 90 % 0.00 in 0 W/m2
21:34 49.6 °F 46.8 °F 29.58 in West 14.0 mph 26.0 mph 90 % 0.00 in 0 W/m2
21:39 49.6 °F 46.8 °F 29.58 in West 15.0 mph 29.0 mph 90 % 0.00 in 0 W/m2
21:44 49.8 °F 47.0 °F 29.57 in West 17.0 mph 29.0 mph 90 % 0.00 in 0 W/m2
21:49 49.6 °F 46.8 °F 29.58 in West 15.0 mph 28.0 mph 90 % 0.00 in 0 W/m2
21:54 49.8 °F 47.0 °F 29.57 in West 14.0 mph 25.0 mph 90 % 0.00 in 0 W/m2
21:59 49.8 °F 47.3 °F 29.57 in West 15.0 mph 28.0 mph 91 % 0.00 in 0 W/m2
22:04 50.2 °F 47.7 °F 29.57 in West 16.0 mph 28.0 mph 91 % 0.00 in 0 W/m2
22:09 50.4 °F 47.8 °F 29.57 in West 15.0 mph 28.0 mph 91 % 0.00 in 0 W/m2
22:14 50.5 °F 47.7 °F 29.56 in West 13.0 mph 28.0 mph 90 % 0.00 in 0 W/m2
22:19 50.7 °F 48.2 °F 29.57 in West 13.0 mph 26.0 mph 91 % 0.00 in 0 W/m2
22:24 50.9 °F 48.1 °F 29.57 in West 14.0 mph 26.0 mph 90 % 0.00 in 0 W/m2
22:29 51.3 °F 48.4 °F 29.57 in West 13.0 mph 23.0 mph 90 % 0.00 in 0 W/m2
22:34 51.6 °F 48.8 °F 29.58 in West 15.0 mph 30.0 mph 90 % 0.00 in 0 W/m2
22:39 52.0 °F 48.8 °F 29.58 in West 16.0 mph 30.0 mph 89 % 0.00 in 0 W/m2
22:44 52.0 °F 48.8 °F 29.58 in WNW 16.0 mph 31.0 mph 89 % 0.00 in 0 W/m2
22:49 52.2 °F 49.0 °F 29.57 in WNW 15.0 mph 31.0 mph 89 % 0.00 in 0 W/m2
22:54 52.2 °F 49.0 °F 29.58 in WNW 17.0 mph 32.0 mph 89 % 0.00 in 0 W/m2
22:59 52.2 °F 49.0 °F 29.57 in WNW 19.0 mph 32.0 mph 89 % 0.00 in 0 W/m2
23:04 52.2 °F 49.0 °F 29.57 in West 17.0 mph 32.0 mph 89 % 0.00 in 0 W/m2
23:09 52.2 °F 49.0 °F 29.57 in West 17.0 mph 30.0 mph 89 % 0.00 in 0 W/m2
23:14 52.2 °F 48.7 °F 29.57 in West 19.0 mph 32.0 mph 88 % 0.00 in 0 W/m2
23:19 52.3 °F 48.9 °F 29.57 in West 17.0 mph 32.0 mph 88 % 0.00 in 0 W/m2
23:24 52.3 °F 48.9 °F 29.57 in WNW 15.0 mph 29.0 mph 88 % 0.00 in 0 W/m2
23:29 52.3 °F 48.9 °F 29.57 in WNW 15.0 mph 26.0 mph 88 % 0.00 in 0 W/m2
23:34 52.3 °F 48.9 °F 29.57 in WNW 18.0 mph 30.0 mph 88 % 0.00 in 0 W/m2
23:39 52.3 °F 48.6 °F 29.57 in WNW 21.0 mph 35.0 mph 87 % 0.00 in 0 W/m2
23:44 52.3 °F 48.6 °F 29.57 in WNW 20.0 mph 36.0 mph 87 % 0.00 in 0 W/m2
23:49 52.3 °F 48.6 °F 29.57 in WNW 19.0 mph 36.0 mph 87 % 0.00 in 0 W/m2
23:54 52.3 °F 48.6 °F 29.57 in WNW 18.0 mph 31.0 mph 87 % 0.00 in 0 W/m2
23:59 52.3 °F 48.6 °F 29.57 in WNW 17.0 mph 31.0 mph 87 % 0.00 in 0 W/m2
Delerius-Weather
Compliments of Weather Underground - 2.25 mb

Data updates at regular intervals.